Marrakech, Morocco

6:04 AM WET on May 28, 2017 (GMT +0000)
Marrakech

Weather History for GMMX - August, 2014

Change the Weather History Date:

Wednesday, August 13, 2014

  Actual Average Record
Temperature  
Mean Temperature 84 °F -  
Max Temperature 100 °F 91 °F 112 °F (2013)
Min Temperature 67 °F 66 °F 66 °F (1996)
Cooling Degree Days 18    
Growing Degree Days 34 (Base 50)    
Moisture  
Dew Point 58 °F    
Average Humidity 46    
Maximum Humidity 73    
Minimum Humidity 15    
Precipitation  
Precipitation 0.00 in 0.01 in - ()
Sea Level Pressure  
Sea Level Pressure 29.97 in    
Wind  
Wind Speed 5 mph ()    
Max Wind Speed 15 mph    
Max Gust Speed -    
Visibility 6.0 miles    
Events      
Averages and records for this station are not official NWS values.
T = Trace of Precipitation, MM = Missing Value Source: Averaged Metar Reports

Daily Weather History Graph

Daily Weather History Graph

Search for Another Location

Airport or City:

Trip Planner

Search our weather history database for the weather conditions in past years. The results will help you decide how hot, cold, wet, or windy it might be!

Date:

Astronomy

Aug. 13, 2014 Rise Set
Actual Time 6:55 AM WEST 8:17 PM WEST
Civil Twilight 6:30 AM WEST 8:43 PM WEST
Nautical Twilight 5:59 AM WEST 9:14 PM WEST
Astronomical Twilight 5:27 AM WEST 9:46 PM WEST
Moon 10:11 PM WEST (8/13) 9:53 AM WEST (8/13)
Length of Visible Light 14h 13m
Length of Day
13h 21m
Waning Gibbous, 89% of the Moon is Illuminated
Aug 13
Waning Gibbous
Aug 17
Last Quarter
Aug 25
New
Sep 2
First Quarter
Sep 9
Full

Hourly Weather History & Observations

Time (WEST) Temp. Heat Index Dew Point Humidity Pressure Visibility Wind Dir Wind Speed Gust Speed Precip Events Conditions
12:00 AM 78.8 °F - 60.8 °F 54% 30.06 in - NE 6.9 mph - N/A   Clear
12:30 AM 78.8 °F - 59.0 °F 51% 30.06 in - NE 6.9 mph - N/A   Clear
1:00 AM 78 °F - 59 °F 42% 29.98 in 6 mi NNE 5.8 mph - -  
1:00 AM 77.0 °F - 59.0 °F 54% 30.04 in - NNE 5.8 mph - N/A   Clear
1:30 AM 77.0 °F - 59.0 °F 54% 30.04 in - NNE 4.6 mph - N/A   Clear
2:00 AM 77.0 °F - 59.0 °F 54% 30.04 in - NNE 4.6 mph - N/A   Clear
2:30 AM 77.0 °F - 59.0 °F 54% 30.04 in - North 3.5 mph - N/A   Clear
3:00 AM 75.2 °F - 59.0 °F 57% 30.01 in - NNE 3.5 mph - N/A   Clear
3:30 AM 75.2 °F - 59.0 °F 57% 30.01 in 6.2 mi Calm Calm - N/A   Unknown
4:00 AM 71 °F - 60 °F 59% 29.95 in 6 mi West 3.5 mph - -  
4:00 AM 71.6 °F - 59.0 °F 64% 30.01 in - West 3.5 mph - N/A   Clear
4:30 AM 69.8 °F - 59.0 °F 68% 30.01 in - West 4.6 mph - N/A   Clear
5:00 AM 69.8 °F - 60.8 °F 73% 29.98 in - West 4.6 mph - N/A   Clear
5:30 AM 69.8 °F - 60.8 °F 73% 29.98 in - WSW 4.6 mph - N/A   Clear
6:00 AM 69.8 °F - 60.8 °F 73% 29.98 in - WSW 4.6 mph - N/A   Clear
6:30 AM 69.8 °F - 60.8 °F 73% 29.98 in - SW 4.6 mph - N/A   Clear
7:00 AM 67 °F - 60 °F 70% 29.95 in 6 mi SW 4.6 mph - -  
7:00 AM 68.0 °F - 59.0 °F 73% 29.98 in - WSW 4.6 mph - N/A   Clear
7:30 AM 68.0 °F - 59.0 °F 73% 30.01 in - SW 3.5 mph - N/A   Clear
8:00 AM 68.0 °F - 59.0 °F 73% 30.01 in - WSW 4.6 mph - N/A   Clear
8:30 AM 69.8 °F - 60.8 °F 73% 30.01 in - SW 4.6 mph - N/A   Clear
9:00 AM 71.6 °F - 60.8 °F 69% 30.01 in - SW 3.5 mph - N/A   Clear
9:30 AM 75.2 °F - 60.8 °F 61% 30.01 in - Variable 1.2 mph - N/A   Clear
10:00 AM 78 °F - 62 °F 47% 29.94 in 6 mi West 1.2 mph - -  
10:00 AM 77.0 °F - 60.8 °F 57% 30.01 in - Variable 2.3 mph - N/A   Clear
10:30 AM 78.8 °F - 60.8 °F 54% 30.01 in - NNW 4.6 mph - N/A   Clear
11:00 AM 80.6 °F 81.5 °F 60.8 °F 51% 30.01 in - Variable 1.2 mph - N/A   Clear
11:30 AM 82.4 °F 82.9 °F 60.8 °F 48% 30.01 in - Variable 3.5 mph - N/A   Clear
12:00 PM 84.2 °F 84.4 °F 60.8 °F 45% 30.01 in - Variable 4.6 mph - N/A   Clear
12:30 PM 86.0 °F 86.1 °F 60.8 °F 43% 30.01 in - NW 5.8 mph - N/A   Clear
1:00 PM 87 °F - 60 °F 30% 29.89 in 6 mi NW 5.8 mph - -  
1:00 PM 87.8 °F 87.6 °F 60.8 °F 40% 30.01 in - NW 5.8 mph - N/A   Clear
1:30 PM 89.6 °F 88.9 °F 59.0 °F 36% 29.98 in - Variable 5.8 mph - N/A   Clear
2:00 PM 91.4 °F 90.7 °F 59.0 °F 34% 29.98 in - Variable 4.6 mph - N/A   Clear
2:30 PM 93.2 °F 91.9 °F 57.2 °F 30% 29.98 in - Variable 5.8 mph - N/A   Clear
3:00 PM 95.0 °F 92.7 °F 53.6 °F 25% 29.95 in - NE 8.1 mph - N/A   Clear
3:30 PM 95.0 °F 92.7 °F 53.6 °F 25% 29.95 in - Variable 4.6 mph - N/A   Clear
4:00 PM 97 °F - 53 °F 15% 29.81 in 6 mi ENE 8.1 mph - -  
4:00 PM 96.8 °F 94.4 °F 53.6 °F 23% 29.95 in - ENE 9.2 mph - N/A   Clear
4:30 PM 98.6 °F - 51.8 °F 21% 29.92 in - NNE 5.8 mph - N/A   Clear
5:00 PM 98.6 °F - 51.8 °F 21% 29.92 in - North 9.2 mph - N/A   Clear
5:30 PM 98.6 °F - 51.8 °F 21% 29.92 in - NNE 5.8 mph - N/A   Clear
6:00 PM 98.6 °F - 51.8 °F 21% 29.92 in - NNE 8.1 mph - N/A   Clear
6:46 PM 99 °F - 57 °F 16% 29.78 in 6 mi North 10.4 mph - -  
7:00 PM 98.6 °F 97.6 °F 57.2 °F 25% 29.92 in - North 10.4 mph - N/A   Clear
7:30 PM 96.8 °F 96.2 °F 59.0 °F 28% 29.92 in - North 12.7 mph - N/A   Clear
8:00 PM 93.2 °F 92.6 °F 59.0 °F 32% 29.92 in - NNE 15.0 mph - N/A   Clear
8:30 PM 91.4 °F 89.9 °F 57.2 °F 31% 29.95 in - NNE 15.0 mph - N/A   Clear
9:00 PM 87.8 °F 86.5 °F 57.2 °F 35% 29.95 in - NNE 15.0 mph - N/A   Clear
9:30 PM 86.0 °F 84.9 °F 57.2 °F 37% 29.98 in - NNE 15.0 mph - N/A   Clear
10:00 PM 84 °F - 57 °F 30% 29.89 in 6 mi NNE 12.7 mph - -  
10:00 PM 84.2 °F 83.5 °F 57.2 °F 40% 29.98 in - NNE 15.0 mph - N/A   Clear
10:30 PM 82.4 °F 82.5 °F 59.0 °F 45% 29.98 in - NE 12.7 mph - N/A   Clear
11:00 PM 82.4 °F 82.5 °F 59.0 °F 45% 30.01 in - NE 10.4 mph - N/A   Clear
11:30 PM 80.6 °F 81.1 °F 59.0 °F 48% 30.01 in - NE 10.4 mph - N/A   Clear